CAPE
3 3 0 nan nan nan nan nan nan nan nan nan nan nan 0 0 nan nan 1 0 0 nan nan nan nan nan nan 1 0 0 nan 1 4 4 8 12 16 16 19 22 22 25 30 33 33 33 26 18 18 13 9 7 7 7 9 10 10 12 14 17 17 21 29 36 36 43 42 39 38 38 35 35 31 31 26 24 22 22 21 23 23 23 25 24 24 25
0 1 nan nan nan nan nan nan nan nan nan nan nan nan nan nan 0 0 0 0 0 nan nan nan nan nan nan nan 0 0 0 3 8 8 12 14 17 17 19 23 23 25 29 31 31 25 17 9 9 6 4 3 3 3 4 5 5 7 9 13 13 18 25 31 31 34 35 34 31 31 30 27 25 25 23 24 23 23 26 27 27 29 29 31 31 33
0 0 nan nan nan nan nan nan nan nan nan nan 0 0 nan nan nan nan 0 0 0 nan nan nan nan nan nan nan 2 2 3 6 10 10 14 18 22 22 23 24 24 29 26 23 23 17 9 5 5 2 1 1 1 1 1 2 2 4 9 12 12 17 22 25 25 29 28 27 25 25 22 22 19 19 20 24 26 26 29 31 31 35 36 36 36 40
0 nan 0 0 0 nan 0 0 0 0 0 0 nan nan nan nan 0 0 0 0 0 nan 0 nan nan nan nan nan 1 1 4 8 12 12 15 20 22 22 27 26 26 25 23 16 16 10 4 3 3 1 0 nan nan nan 1 3 3 6 10 13 13 18 22 23 23 23 22 19 18 18 17 18 17 17 19 24 28 28 32 34 34 36 36 36 36 36
nan 0 0 0 0 0 0 0 0 0 0 0 nan nan nan nan 0 0 0 0 0 nan nan nan nan nan nan nan 0 0 3 7 9 9 14 19 22 22 25 22 22 18 15 9 9 4 2 1 1 nan nan nan nan nan 2 5 5 9 13 17 17 19 22 20 20 17 16 14 14 14 15 16 18 18 21 22 28 28 29 30 30 31 30 32 32 32
0 1 1 1 1 0 0 0 0 0 0 0 nan nan 0 0 1 1 0 0 0 0 0 nan nan nan nan nan 0 0 2 5 8 8 10 17 22 22 19 13 13 8 5 3 3 1 nan nan nan nan nan nan 1 1 4 9 9 13 17 18 18 17 15 15 15 13 13 12 12 12 13 14 16 16 19 21 24 24 24 24 24 25 27 25 25 25
0 1 1 1 1 1 0 0 0 0 0 0 0 0 nan 0 0 0 0 0 0 nan nan nan nan nan nan nan nan nan 0 3 6 6 7 9 11 11 7 3 3 0 nan nan nan nan nan nan nan nan nan 1 3 3 7 13 13 14 15 13 13 13 12 11 11 10 9 8 8 8 9 12 14 14 14 16 18 18 20 21 21 24 24 24 24 24
nan 0 nan nan nan 0 1 1 1 1 nan nan nan nan nan nan nan nan nan nan nan nan nan nan nan nan nan nan nan nan nan nan nan nan nan nan nan nan nan nan nan nan nan nan nan nan nan nan nan nan nan 1 3 3 5 7 7 7 6 4 4 4 3 3 3 3 3 3 4 4 4 6 7 7 7 8 9 9 10 12 12 16 19 22 22 26
nan nan nan nan nan nan nan 0 nan nan nan nan nan nan nan nan nan nan nan nan nan nan nan nan nan nan nan nan nan nan nan nan nan nan nan nan nan nan nan nan nan nan nan nan nan nan nan nan nan nan nan nan 1 1 2 2 2 2 2 2 2 1 1 1 1 1 1 2 3 3 4 5 7 7 7 8 8 8 9 11 11 14 17 22 22 28
nan nan 0 nan nan nan nan 0 0 0 nan nan nan nan nan nan nan nan nan nan nan nan nan nan nan nan nan nan nan nan nan nan nan nan nan nan nan nan nan nan nan nan nan nan nan nan nan nan nan nan nan nan 0 0 0 0 0 1 0 0 0 0 0 0 0 0 1 2 3 3 4 6 7 7 8 9 9 9 10 10 10 12 15 19 19 25
nan nan nan nan nan nan nan nan nan nan nan nan nan nan nan nan nan nan nan nan nan nan nan nan nan nan nan nan nan nan nan nan nan nan nan nan nan nan nan nan nan nan nan nan nan nan nan nan nan nan nan nan nan nan nan nan nan nan nan nan nan nan nan nan nan 0 0 2 3 3 5 7 9 9 9 10 10 10 12 11 11 11 13 18 18 22
nan nan nan nan nan nan nan nan nan nan nan nan nan nan nan nan nan nan nan nan nan nan nan nan nan nan nan nan nan nan nan nan nan nan nan nan nan nan nan nan nan nan nan nan nan nan nan nan nan nan nan nan nan nan nan nan nan nan nan nan nan nan nan nan nan 0 0 2 4 4 6 8 11 11 11 12 12 12 12 11 11 11 13 16 16 20
nan nan nan nan nan nan nan nan nan nan nan nan nan nan nan nan nan nan nan nan nan nan nan nan nan nan nan nan nan nan nan nan nan nan nan nan nan nan nan nan nan nan nan nan nan nan nan nan nan nan nan nan nan nan nan nan nan nan nan nan nan nan nan nan nan 0 1 3 6 6 8 12 12 12 13 12 13 13 12 12 12 12 12 14 14 18
nan nan nan nan nan nan nan nan nan nan nan nan nan nan nan nan nan nan nan nan nan nan nan nan nan nan nan nan nan nan nan nan nan nan nan nan nan nan nan nan nan nan nan nan nan nan nan nan nan nan nan nan nan nan nan nan nan nan nan nan nan nan nan 1 1 2 4 5 7 7 9 12 13 13 13 13 13 13 13 12 12 12 13 14 14 16
nan nan nan nan nan nan nan nan nan nan nan nan nan nan nan nan nan nan nan nan nan nan nan nan nan nan nan nan nan nan nan nan nan nan nan nan nan nan nan nan nan nan nan nan nan nan nan nan nan nan nan nan nan nan nan nan nan nan nan nan nan 0 1 2 2 3 5 7 8 8 10 12 13 13 14 15 16 16 15 14 14 13 14 14 14 16
nan nan nan nan nan nan nan nan nan nan nan nan nan nan nan nan nan nan nan nan nan nan nan nan nan nan nan nan nan nan nan nan nan nan nan nan nan nan nan nan nan nan nan nan nan nan nan nan nan nan nan nan nan nan nan nan nan nan nan 0 0 1 2 3 3 4 6 7 8 8 9 11 13 13 14 16 16 16 16 15 15 14 15 16 16 17
nan nan nan nan nan nan nan nan nan nan nan nan nan nan nan nan nan nan nan nan nan nan nan nan nan nan nan nan nan nan nan nan nan nan nan nan nan nan nan nan nan nan nan nan nan nan nan nan nan nan nan nan nan nan nan nan nan nan 0 0 0 1 1 2 2 3 4 6 8 8 9 11 13 13 13 13 13 13 14 15 15 15 15 16 16 18
nan nan nan nan nan nan nan nan nan nan nan nan nan nan nan nan nan nan nan nan nan nan nan nan nan nan nan nan nan nan nan nan nan nan nan nan nan nan nan nan nan nan nan nan nan nan nan nan nan nan nan nan nan nan nan nan nan nan nan 0 0 0 0 1 1 2 4 7 8 8 10 11 11 11 13 12 13 13 13 13 13 13 14 14 14 16
nan nan nan nan nan nan nan nan nan nan nan nan nan nan nan nan nan nan nan nan nan nan nan nan nan nan nan nan nan nan nan nan nan nan nan nan nan nan nan nan nan nan nan nan nan nan nan nan nan nan nan nan nan nan nan nan nan nan nan nan nan 0 0 1 1 2 4 7 9 9 9 10 10 10 10 11 11 11 11 12 12 12 13 14 14 15
nan nan nan nan nan nan nan nan nan nan nan nan nan nan nan nan nan nan nan nan nan nan nan nan nan nan nan nan nan nan nan nan nan nan nan nan nan nan nan nan nan nan nan nan nan nan nan nan nan nan nan nan nan nan nan nan nan nan nan nan nan 0 1 2 2 3 5 7 9 9 9 9 9 9 10 10 10 10 10 12 12 13 13 15 15 15
nan nan nan nan nan nan nan nan nan nan nan nan nan nan nan nan nan nan nan nan nan nan nan nan nan nan nan nan nan nan nan nan nan nan nan nan nan nan nan nan nan nan nan nan nan nan nan nan nan nan nan nan nan nan nan nan nan nan nan 0 0 0 1 2 2 3 5 7 8 8 8 9 8 8 8 9 10 10 11 13 13 14 14 16 16 18
nan nan nan nan nan nan nan nan nan nan nan nan nan nan nan nan nan nan nan nan nan nan nan nan nan nan nan nan nan nan nan nan nan nan nan nan nan nan nan nan nan nan nan nan nan nan nan nan nan nan nan nan nan nan nan nan nan nan nan 0 0 1 1 2 2 3 5 6 7 7 8 8 8 8 8 8 9 9 12 14 14 15 16 17 17 19
nan nan nan nan nan nan nan nan nan nan nan nan nan nan nan nan nan nan nan nan nan nan nan nan nan nan nan nan nan nan nan nan nan nan nan nan nan nan nan nan nan nan nan nan nan nan nan nan nan nan nan nan nan nan nan nan nan nan nan 0 0 1 1 3 3 3 4 5 7 7 8 8 9 9 9 9 10 10 13 14 14 15 17 17 17 18
nan nan nan nan nan nan nan nan nan nan nan nan nan nan nan nan nan nan nan nan nan nan nan nan nan nan nan nan nan nan nan nan nan nan nan nan nan nan nan nan nan nan nan nan nan nan nan nan nan nan nan nan nan nan nan nan nan nan nan 0 0 0 1 2 2 3 5 6 7 7 8 8 9 9 9 11 12 12 13 13 13 14 15 17 17 18
nan nan nan nan nan nan nan nan nan nan nan nan nan nan nan nan nan nan nan nan nan nan nan nan nan nan nan nan nan nan nan nan nan nan nan nan nan nan nan nan nan nan nan nan nan nan nan nan nan nan nan nan nan nan nan nan nan nan nan 0 0 0 2 2 2 3 3 4 4 4 5 7 8 8 9 11 12 12 11 12 12 13 15 17 17 18
nan nan nan nan nan nan nan 7 9 9 nan nan nan nan nan nan nan nan nan nan nan nan nan nan nan nan nan nan nan nan nan nan nan nan nan nan nan nan nan nan nan nan nan nan nan nan nan nan nan nan nan nan nan nan nan nan nan nan 0 0 0 0 1 1 1 1 1 1 2 2 4 6 8 8 9 11 11 11 12 12 12 13 14 17 17 18
0 nan 6 8 8 5 nan nan nan nan 19 1 nan nan nan nan nan nan nan nan nan nan nan nan nan nan nan nan nan nan nan nan nan nan nan nan nan nan nan nan nan nan nan nan nan nan nan nan nan nan nan nan nan nan nan nan nan nan nan nan nan nan nan nan nan 0 1 1 2 2 3 6 7 7 8 10 12 12 11 11 11 12 13 13 13 16
0 nan nan nan nan nan nan nan nan nan nan 2 16 16 nan nan nan nan nan nan nan nan nan nan nan nan nan nan nan nan nan nan nan nan nan nan nan nan nan nan nan nan nan nan nan nan nan nan nan nan nan nan nan nan nan nan nan nan nan nan nan nan nan nan nan nan 0 1 2 2 3 4 6 6 7 8 9 9 10 10 10 12 12 8 8 3
nan nan nan nan nan nan nan nan nan nan nan nan nan nan nan nan nan nan nan nan nan nan nan nan nan nan nan nan nan nan nan nan nan nan nan nan nan nan nan nan nan nan nan nan nan nan nan nan nan nan nan nan nan nan nan nan nan nan nan nan nan nan nan nan nan nan nan 0 1 1 2 3 4 4 5 7 8 8 9 9 9 10 8 5 5 0
nan nan nan nan nan nan nan nan nan nan nan nan nan nan nan nan nan nan nan nan nan nan nan nan nan nan nan nan nan nan nan nan nan nan nan nan nan nan nan nan nan nan nan nan nan nan nan nan nan nan nan nan nan nan nan nan nan nan nan nan nan nan nan nan nan nan nan 0 0 0 1 2 3 3 3 4 6 6 8 9 9 7 3 1 1 0
nan nan nan nan nan nan nan nan nan nan nan nan nan nan nan nan nan nan nan nan nan nan nan nan nan nan nan nan nan nan nan nan nan nan nan nan nan nan nan nan nan nan nan nan nan nan nan nan nan nan nan nan nan nan nan nan nan nan nan nan nan nan nan nan nan nan nan nan 0 0 0 1 2 2 3 3 5 5 6 9 9 7 1 0 0 nan
nan nan nan nan nan nan nan nan nan nan nan nan nan nan nan nan nan nan nan nan nan nan nan nan nan nan nan nan nan nan nan nan nan nan nan nan nan nan nan nan nan nan nan nan nan nan nan nan nan nan nan nan nan nan nan nan nan nan nan nan nan nan nan nan nan nan nan nan nan nan 0 0 1 1 2 3 4 4 5 7 7 7 0 nan nan 0
nan nan nan nan nan nan nan nan nan nan nan nan nan nan nan nan nan nan nan nan nan nan nan nan nan nan nan nan nan nan nan nan nan nan nan nan nan nan nan nan nan nan nan nan nan nan nan nan nan nan nan nan nan nan nan nan nan nan nan nan nan nan nan nan nan nan nan nan nan nan nan nan 0 0 1 2 3 3 4 6 6 8 8 0 0 1
nan nan nan nan nan nan nan nan nan nan nan nan nan nan nan nan nan nan nan nan nan nan nan nan nan nan nan nan nan nan nan nan nan nan nan nan nan nan nan nan nan nan nan nan nan nan nan nan nan nan nan nan nan nan nan nan nan nan nan nan nan nan nan nan nan nan nan nan nan nan nan nan nan nan nan 1 3 3 5 8 8 10 13 10 10 4
nan nan nan nan nan nan nan nan nan nan nan nan nan nan nan nan nan nan nan nan nan nan nan nan nan nan nan nan nan nan nan nan nan nan nan nan nan nan nan nan nan nan nan nan nan nan nan nan nan nan nan nan nan nan nan nan nan nan nan nan nan nan nan nan nan nan nan nan nan nan nan nan nan nan nan nan 3 3 8 10 10 13 15 19 19 15
nan nan nan nan nan nan nan nan nan nan nan nan nan nan nan nan nan nan nan nan nan nan nan nan nan nan nan nan nan nan nan nan nan nan nan nan nan nan nan nan nan nan nan nan nan nan nan nan nan 0 nan nan nan nan nan nan nan nan nan nan nan nan nan nan nan nan nan nan nan nan nan nan nan nan nan 0 7 7 11 13 13 14 14 18 18 19
nan nan nan nan nan nan nan nan nan nan nan nan nan nan nan nan nan nan nan nan nan nan nan nan nan nan nan nan nan nan nan nan nan nan nan nan nan nan nan nan nan 0 nan nan nan nan nan nan nan nan nan nan nan nan nan nan nan nan nan nan nan nan nan nan nan nan nan nan nan nan nan nan nan nan nan 3 3 3 7 10 10 10 12 13 13 16
nan nan nan nan nan nan nan nan nan nan nan nan nan nan nan nan nan nan nan nan nan nan nan nan nan nan nan nan nan nan nan nan nan nan nan nan nan nan nan nan nan 0 0 nan nan nan nan nan nan nan nan nan nan nan nan nan nan nan nan nan nan nan nan nan nan nan nan nan nan nan nan nan nan nan nan nan nan nan nan nan nan 0 9 9 9 12
nan nan nan nan nan nan nan nan nan nan nan nan nan nan nan nan nan nan nan nan nan nan nan nan nan nan nan nan nan nan nan nan nan nan nan nan nan nan nan nan nan nan nan nan nan 0 nan nan nan nan nan nan nan nan nan nan nan nan nan nan nan nan nan nan nan nan nan nan nan nan nan nan nan nan nan nan nan nan nan nan nan nan 0 nan nan 6
nan nan nan nan nan nan nan nan nan nan nan nan nan nan nan nan nan nan nan nan nan nan nan nan nan nan nan nan nan nan nan nan nan nan nan nan nan nan nan nan nan nan nan nan nan 0 0 nan nan nan nan nan nan nan nan nan nan nan 0 nan nan nan nan nan nan nan nan nan nan nan nan nan nan nan nan nan nan nan nan nan nan nan nan nan nan nan
nan nan nan nan nan nan nan nan nan nan nan nan nan nan nan nan nan nan nan nan nan nan nan nan nan nan nan nan nan nan nan nan nan nan nan nan nan nan nan nan nan nan nan nan nan nan 0 nan nan nan nan nan nan nan nan nan nan 1 3 nan nan nan nan nan nan nan nan nan nan nan nan nan nan nan nan nan nan nan nan nan nan nan nan nan nan nan
nan nan nan nan nan nan nan nan nan nan nan nan nan nan nan nan nan nan nan nan nan nan nan nan nan nan nan nan nan nan nan nan nan nan nan nan nan nan nan nan nan nan nan nan nan nan 0 0 0 nan nan nan nan nan nan nan nan 0 1 nan nan nan 0 nan nan nan nan nan nan nan 0 nan nan nan nan nan nan nan nan nan nan nan nan nan nan nan
nan nan nan nan nan nan nan nan nan nan nan nan nan nan nan nan nan nan nan nan nan nan nan nan nan nan nan nan nan nan nan nan nan nan nan nan nan nan nan nan nan nan nan nan nan nan 0 1 1 0 nan nan nan nan nan nan nan nan nan 0 0 nan nan nan nan nan nan nan nan nan nan nan nan nan nan nan nan nan nan nan nan 1 2 nan nan nan
nan nan nan nan nan nan nan nan nan nan nan nan nan nan nan nan nan nan nan nan nan nan nan nan nan nan nan nan nan nan nan nan nan nan nan nan nan nan nan nan nan nan nan nan nan nan nan nan nan nan nan nan nan nan nan nan nan nan nan nan nan nan nan nan nan nan nan nan nan nan nan nan nan nan nan nan nan nan nan nan nan nan nan nan nan nan
nan nan nan nan nan nan nan nan nan nan nan nan nan nan nan nan nan nan nan nan nan nan nan nan nan nan nan nan nan nan nan nan nan nan nan nan nan nan nan nan nan nan nan nan nan nan nan nan nan nan nan nan nan nan nan nan nan nan nan 0 0 0 nan nan nan nan nan nan nan nan nan nan nan nan nan nan nan nan nan nan nan nan nan nan nan nan
nan nan nan nan nan nan nan nan nan nan nan nan nan nan nan nan nan nan nan nan nan nan nan nan nan nan nan nan nan nan nan nan nan nan nan nan nan nan nan nan nan nan nan nan nan nan nan nan nan nan nan nan nan nan nan nan nan nan nan 0 0 0 nan nan nan nan nan nan nan nan nan nan nan nan nan nan nan nan nan nan nan nan nan nan nan nan
nan nan nan nan nan nan nan nan nan nan nan nan nan nan nan nan nan nan nan nan nan nan nan nan nan nan nan 0 nan nan nan nan nan nan nan nan nan nan nan nan nan nan nan nan nan nan nan nan nan nan nan nan nan nan nan nan nan nan nan nan nan nan nan nan nan nan nan nan nan nan nan nan nan nan nan nan nan nan nan nan nan nan nan nan nan nan
nan nan nan nan nan nan nan nan nan nan nan nan nan nan nan nan nan nan nan nan nan nan 1 1 1 0 nan nan nan nan nan nan nan nan nan nan nan nan nan nan nan nan nan nan nan nan nan nan nan nan nan nan nan nan nan nan nan nan nan nan nan nan nan nan nan nan nan nan nan nan nan nan nan nan nan nan nan nan nan nan nan nan nan nan nan nan
nan nan nan nan nan nan nan nan nan nan nan nan nan nan nan nan 1 1 nan nan nan nan nan nan nan 0 nan nan nan nan 0 0 nan nan nan nan nan nan nan nan nan nan nan nan nan nan nan nan nan nan nan nan nan nan nan nan nan nan nan nan nan nan nan nan nan nan nan nan nan nan nan nan nan nan nan nan nan nan nan nan nan nan nan nan nan nan
nan nan nan nan nan nan nan nan nan nan nan nan nan nan nan nan nan nan nan nan nan nan nan nan nan 0 nan nan nan nan nan nan nan nan nan nan nan nan nan nan nan nan nan nan nan nan nan nan nan 1 6 0 nan nan nan nan nan nan nan nan nan nan nan nan nan nan nan nan nan nan nan nan nan nan nan nan nan nan nan nan nan nan nan nan nan nan
nan nan nan nan nan nan nan nan nan nan nan nan 0 0 nan nan nan nan nan nan nan nan 0 0 0 nan nan nan nan nan nan nan nan nan nan nan nan nan nan nan nan nan nan nan nan nan nan nan nan nan 0 15 1 1 nan nan nan nan nan nan nan nan nan nan nan nan nan nan nan nan nan nan nan nan nan nan nan nan nan nan nan nan nan nan nan nan
CIN
-0 -0 -3 nan nan nan nan nan nan nan nan nan nan nan -0 -0 nan nan -0 -0 -0 nan nan nan nan nan nan -0 -0 -0 nan -0 -0 -0 -0 -0 -0 -0 -0 -0 -0 -0 -0 -0 -0 -0 -0 -0 -0 -0 -0 -0 -0 -0 -0 -0 -0 -0 -0 -0 -0 -0 -0 -0 -0 -0 -0 -0 -0 -0 -0 -0 -0 -0 -0 -0 -0 -0 -0 -0 -0 -0 -0 -0 -0 -0
-1 -1 nan nan nan nan nan nan nan nan nan nan nan nan nan nan -0 -0 -0 -0 -0 nan nan nan nan nan nan nan -0 -0 -0 -0 -0 -0 -0 -0 -0 -0 -0 -0 -0 -0 -0 -0 -0 -0 -0 -0 -0 -0 -0 -0 -0 -0 -0 -0 -0 -0 -0 -0 -0 -0 -0 -0 -0 -0 -0 -0 -0 -0 -0 -0 -0 -0 -0 -0 -0 -0 -0 -0 -0 -0 -0 -0 -0 -0
-1 -1 nan nan nan nan nan nan nan nan nan nan -0 -0 nan nan nan nan -0 -0 -0 nan nan nan nan nan nan nan -0 -0 -0 -0 -0 -0 -0 -0 -0 -0 -0 -0 -0 -0 -0 -0 -0 -0 -0 -0 -0 -0 -0 -0 -0 -0 -0 -0 -0 -0 -0 -0 -0 -0 -0 -0 -0 -0 -0 -0 -0 -0 -0 -0 -0 -0 -0 -0 -0 -0 -0 -0 -0 -0 -0 -0 -0 -0
-2 nan -0 -0 -0 nan -0 -0 -0 -0 -0 -0 nan nan nan nan -0 -0 -0 -0 -0 nan -0 nan nan nan nan nan -0 -0 -0 -0 -0 -0 -0 -0 -0 -0 -0 -0 -0 -0 -0 -0 -0 -0 -0 -0 -0 -0 -0 nan nan nan -0 -0 -0 -0 -0 -0 -0 -0 -0 -0 -0 -0 -0 -0 -0 -0 -0 -0 -0 -0 -0 -0 -0 -0 -0 -0 -0 -0 -0 -0 -0 -0
nan -0 -0 -0 -0 -0 -0 -0 -0 -0 -0 -0 nan nan nan nan -0 -0 -0 -0 -0 nan nan nan nan nan nan nan -0 -0 -0 -0 -0 -0 -0 -0 -0 -0 -0 -0 -0 -0 -0 -0 -0 -0 -0 -0 -0 nan nan nan nan nan -0 -0 -0 -0 -0 -0 -0 -0 -0 -0 -0 -0 -0 -0 -0 -0 -0 -0 -0 -0 -0 -0 -0 -0 -0 -0 -0 -0 -0 -0 -0 -0
-0 -0 -0 -0 -0 -0 -0 -0 -0 -0 -0 -0 nan nan -0 -0 -0 -0 -0 -0 -0 -0 -0 nan nan nan nan nan -0 -0 -0 -0 -0 -0 -0 -0 -0 -0 -0 -0 -0 -0 -0 -0 -0 -0 nan nan nan nan nan nan -0 -0 -0 -0 -0 -0 -0 -0 -0 -0 -0 -0 -0 -0 -0 -0 -0 -0 -0 -0 -0 -0 -0 -0 -0 -0 -0 -0 -0 -0 -0 -0 -0 -0
-0 -0 -0 -0 -0 -0 -0 -0 -0 -0 -0 -0 -0 -0 nan -0 -0 -0 -0 -0 -0 nan nan nan nan nan nan nan nan nan -0 -1 -0 -0 -0 -0 -0 -0 -0 -0 -0 -0 nan nan nan nan nan nan nan nan nan -0 -0 -0 -0 -0 -0 -0 -0 -0 -0 -0 -0 -0 -0 -0 -0 -0 -0 -0 -0 -0 -0 -0 -0 -0 -0 -0 -0 -0 -0 -0 -0 -0 -0 -0
nan -0 nan nan nan -0 -0 -0 -0 -0 nan nan nan nan nan nan nan nan nan nan nan nan nan nan nan nan nan nan nan nan nan nan nan nan nan nan nan nan nan nan nan nan nan nan nan nan nan nan nan nan nan -0 -0 -0 -0 -0 -0 -0 -0 -0 -0 -0 -0 -0 -0 -0 -0 -0 -0 -0 -0 -0 -0 -0 -0 -0 -0 -0 -0 -0 -0 -0 -0 -0 -0 -0
nan nan nan nan nan nan nan -0 nan nan nan nan nan nan nan nan nan nan nan nan nan nan nan nan nan nan nan nan nan nan nan nan nan nan nan nan nan nan nan nan nan nan nan nan nan nan nan nan nan nan nan nan -0 -0 -0 -0 -0 -0 -0 -0 -0 -0 -0 -0 -0 -0 -0 -0 -0 -0 -0 -0 -0 -0 -0 -0 -0 -0 -0 -0 -0 -0 -0 -0 -0 -0
nan nan -0 nan nan nan nan -0 -0 -0 nan nan nan nan nan nan nan nan nan nan nan nan nan nan nan nan nan nan nan nan nan nan nan nan nan nan nan nan nan nan nan nan nan nan nan nan nan nan nan nan nan nan -0 -0 -0 -0 -0 -0 -0 -0 -0 -0 -0 -0 -0 -0 -0 -0 -0 -0 -0 -0 -0 -0 -0 -0 -0 -0 -0 -0 -0 -0 -0 -0 -0 -0
nan nan nan nan nan nan nan nan nan nan nan nan nan nan nan nan nan nan nan nan nan nan nan nan nan nan nan nan nan nan nan nan nan nan nan nan nan nan nan nan nan nan nan nan nan nan nan nan nan nan nan nan nan nan nan nan nan nan nan nan nan nan nan nan nan -0 -0 -0 -0 -0 -0 -0 -0 -0 -0 -0 -0 -0 -0 -0 -0 -0 -0 -0 -0 -0
nan nan nan nan nan nan nan nan nan nan nan nan nan nan nan nan nan nan nan nan nan nan nan nan nan nan nan nan nan nan nan nan nan nan nan nan nan nan nan nan nan nan nan nan nan nan nan nan nan nan nan nan nan nan nan nan nan nan nan nan nan nan nan nan nan -0 -0 -0 -0 -0 -0 -0 -0 -0 -0 -0 -0 -0 -0 -0 -0 -0 -0 -0 -0 -0
nan nan nan nan nan nan nan nan nan nan nan nan nan nan nan nan nan nan nan nan nan nan nan nan nan nan nan nan nan nan nan nan nan nan nan nan nan nan nan nan nan nan nan nan nan nan nan nan nan nan nan nan nan nan nan nan nan nan nan nan nan nan nan nan nan -0 -0 -0 -0 -0 -0 -0 -0 -0 -0 -0 -0 -0 -0 -0 -0 -0 -0 -0 -0 -0
nan nan nan nan nan nan nan nan nan nan nan nan nan nan nan nan nan nan nan nan nan nan nan nan nan nan nan nan nan nan nan nan nan nan nan nan nan nan nan nan nan nan nan nan nan nan nan nan nan nan nan nan nan nan nan nan nan nan nan nan nan nan nan -0 -0 -0 -0 -0 -0 -0 -0 -0 -0 -0 -0 -0 -0 -0 -0 -0 -0 -0 -0 -0 -0 -0
nan nan nan nan nan nan nan nan nan nan nan nan nan nan nan nan nan nan nan nan nan nan nan nan nan nan nan nan nan nan nan nan nan nan nan nan nan nan nan nan nan nan nan nan nan nan nan nan nan nan nan nan nan nan nan nan nan nan nan nan nan -0 -0 -0 -0 -0 -0 -0 -0 -0 -0 -0 -0 -0 -0 -0 -0 -0 -0 -0 -0 -0 -0 -0 -0 -0
nan nan nan nan nan nan nan nan nan nan nan nan nan nan nan nan nan nan nan nan nan nan nan nan nan nan nan nan nan nan nan nan nan nan nan nan nan nan nan nan nan nan nan nan nan nan nan nan nan nan nan nan nan nan nan nan nan nan nan -0 -0 -0 -0 -0 -0 -0 -0 -0 -0 -0 -0 -0 -0 -0 -0 -0 -0 -0 -0 -0 -0 -0 -0 -0 -0 -0
nan nan nan nan nan nan nan nan nan nan nan nan nan nan nan nan nan nan nan nan nan nan nan nan nan nan nan nan nan nan nan nan nan nan nan nan nan nan nan nan nan nan nan nan nan nan nan nan nan nan nan nan nan nan nan nan nan nan -0 -0 -0 -0 -0 -0 -0 -0 -0 -0 -0 -0 -0 -0 -0 -0 -0 -0 -0 -0 -0 -0 -0 -0 -0 -0 -0 -0
nan nan nan nan nan nan nan nan nan nan nan nan nan nan nan nan nan nan nan nan nan nan nan nan nan nan nan nan nan nan nan nan nan nan nan nan nan nan nan nan nan nan nan nan nan nan nan nan nan nan nan nan nan nan nan nan nan nan nan -0 -0 -0 -0 -0 -0 -0 -0 -0 -0 -0 -0 -0 -0 -0 -0 -0 -0 -0 -0 -0 -0 -0 -0 -0 -0 -0
nan nan nan nan nan nan nan nan nan nan nan nan nan nan nan nan nan nan nan nan nan nan nan nan nan nan nan nan nan nan nan nan nan nan nan nan nan nan nan nan nan nan nan nan nan nan nan nan nan nan nan nan nan nan nan nan nan nan nan nan nan -0 -0 -0 -0 -0 -0 -0 -0 -0 -0 -0 -0 -0 -0 -0 -0 -0 -0 -0 -0 -0 -0 -0 -0 -0
nan nan nan nan nan nan nan nan nan nan nan nan nan nan nan nan nan nan nan nan nan nan nan nan nan nan nan nan nan nan nan nan nan nan nan nan nan nan nan nan nan nan nan nan nan nan nan nan nan nan nan nan nan nan nan nan nan nan nan nan nan -0 -0 -0 -0 -0 -0 -0 -0 -0 -0 -0 -0 -0 -0 -0 -0 -0 -0 -0 -0 -0 -0 -0 -0 -0
nan nan nan nan nan nan nan nan nan nan nan nan nan nan nan nan nan nan nan nan nan nan nan nan nan nan nan nan nan nan nan nan nan nan nan nan nan nan nan nan nan nan nan nan nan nan nan nan nan nan nan nan nan nan nan nan nan nan nan -0 -0 -0 -0 -0 -0 -0 -0 -0 -0 -0 -0 -0 -0 -0 -0 -0 -0 -0 -0 -0 -0 -0 -0 -0 -0 -0
nan nan nan nan nan nan nan nan nan nan nan nan nan nan nan nan nan nan nan nan nan nan nan nan nan nan nan nan nan nan nan nan nan nan nan nan nan nan nan nan nan nan nan nan nan nan nan nan nan nan nan nan nan nan nan nan nan nan nan -0 -0 -0 -0 -0 -0 -0 -0 -0 -0 -0 -0 -0 -0 -0 -0 -0 -0 -0 -0 -0 -0 -0 -0 -0 -0 -0
nan nan nan nan nan nan nan nan nan nan nan nan nan nan nan nan nan nan nan nan nan nan nan nan nan nan nan nan nan nan nan nan nan nan nan nan nan nan nan nan nan nan nan nan nan nan nan nan nan nan nan nan nan nan nan nan nan nan nan -0 -0 -0 -0 -0 -0 -0 -0 -0 -0 -0 -0 -0 -0 -0 -0 -0 -0 -0 -0 -0 -0 -0 -0 -0 -0 -0
nan nan nan nan nan nan nan nan nan nan nan nan nan nan nan nan nan nan nan nan nan nan nan nan nan nan nan nan nan nan nan nan nan nan nan nan nan nan nan nan nan nan nan nan nan nan nan nan nan nan nan nan nan nan nan nan nan nan nan -0 -0 -0 -0 -0 -0 -0 -0 -0 -0 -0 -0 -0 -0 -0 -0 -0 -0 -0 -0 -0 -0 -0 -0 -0 -0 -0
nan nan nan nan nan nan nan nan nan nan nan nan nan nan nan nan nan nan nan nan nan nan nan nan nan nan nan nan nan nan nan nan nan nan nan nan nan nan nan nan nan nan nan nan nan nan nan nan nan nan nan nan nan nan nan nan nan nan nan -0 -0 -0 -0 -0 -0 -0 -0 -0 -0 -0 -0 -0 -0 -0 -0 -0 -0 -0 -0 -0 -0 -0 -0 -0 -0 -0
nan nan nan nan nan nan nan -0 -0 -0 nan nan nan nan nan nan nan nan nan nan nan nan nan nan nan nan nan nan nan nan nan nan nan nan nan nan nan nan nan nan nan nan nan nan nan nan nan nan nan nan nan nan nan nan nan nan nan nan -0 -0 -0 -0 -0 -0 -0 -0 -0 -0 -0 -0 -0 -0 -0 -0 -0 -0 -0 -0 -0 -0 -0 -0 -0 -0 -0 -0
-7 nan -0 -0 -0 -0 nan nan nan nan -0 -18 nan nan nan nan nan nan nan nan nan nan nan nan nan nan nan nan nan nan nan nan nan nan nan nan nan nan nan nan nan nan nan nan nan nan nan nan nan nan nan nan nan nan nan nan nan nan nan nan nan nan nan nan nan -0 -0 -0 -0 -0 -0 -0 -0 -0 -0 -0 -0 -0 -0 -0 -0 -0 -0 -0 -0 -0
-2 nan nan nan nan nan nan nan nan nan nan -0 -0 -0 nan nan nan nan nan nan nan nan nan nan nan nan nan nan nan nan nan nan nan nan nan nan nan nan nan nan nan nan nan nan nan nan nan nan nan nan nan nan nan nan nan nan nan nan nan nan nan nan nan nan nan nan -0 -0 -0 -0 -0 -0 -0 -0 -0 -0 -0 -0 -0 -0 -0 -0 -0 -0 -0 -4
nan nan nan nan nan nan nan nan nan nan nan nan nan nan nan nan nan nan nan nan nan nan nan nan nan nan nan nan nan nan nan nan nan nan nan nan nan nan nan nan nan nan nan nan nan nan nan nan nan nan nan nan nan nan nan nan nan nan nan nan nan nan nan nan nan nan nan -0 -0 -0 -0 -0 -0 -0 -0 -0 -0 -0 -0 -0 -0 -0 -0 -0 -0 -19
nan nan nan nan nan nan nan nan nan nan nan nan nan nan nan nan nan nan nan nan nan nan nan nan nan nan nan nan nan nan nan nan nan nan nan nan nan nan nan nan nan nan nan nan nan nan nan nan nan nan nan nan nan nan nan nan nan nan nan nan nan nan nan nan nan nan nan -0 -0 -0 -0 -0 -0 -0 -0 -0 -0 -0 -0 -0 -0 -0 -0 -9 -9 -16
nan nan nan nan nan nan nan nan nan nan nan nan nan nan nan nan nan nan nan nan nan nan nan nan nan nan nan nan nan nan nan nan nan nan nan nan nan nan nan nan nan nan nan nan nan nan nan nan nan nan nan nan nan nan nan nan nan nan nan nan nan nan nan nan nan nan nan nan -0 -0 -0 -0 -0 -0 -0 -0 -0 -0 -0 -0 -0 -0 -7 -15 -15 nan
nan nan nan nan nan nan nan nan nan nan nan nan nan nan nan nan nan nan nan nan nan nan nan nan nan nan nan nan nan nan nan nan nan nan nan nan nan nan nan nan nan nan nan nan nan nan nan nan nan nan nan nan nan nan nan nan nan nan nan nan nan nan nan nan nan nan nan nan nan nan -0 -0 -0 -0 -0 -0 -0 -0 -0 -0 -0 -0 -8 nan nan -9
nan nan nan nan nan nan nan nan nan nan nan nan nan nan nan nan nan nan nan nan nan nan nan nan nan nan nan nan nan nan nan nan nan nan nan nan nan nan nan nan nan nan nan nan nan nan nan nan nan nan nan nan nan nan nan nan nan nan nan nan nan nan nan nan nan nan nan nan nan nan nan nan -0 -0 -0 -0 -0 -0 -0 -0 -0 -0 -0 -13 -13 -8
nan nan nan nan nan nan nan nan nan nan nan nan nan nan nan nan nan nan nan nan nan nan nan nan nan nan nan nan nan nan nan nan nan nan nan nan nan nan nan nan nan nan nan nan nan nan nan nan nan nan nan nan nan nan nan nan nan nan nan nan nan nan nan nan nan nan nan nan nan nan nan nan nan nan nan -0 -0 -0 -0 -0 -0 -0 -0 -0 -0 -4
nan nan nan nan nan nan nan nan nan nan nan nan nan nan nan nan nan nan nan nan nan nan nan nan nan nan nan nan nan nan nan nan nan nan nan nan nan nan nan nan nan nan nan nan nan nan nan nan nan nan nan nan nan nan nan nan nan nan nan nan nan nan nan nan nan nan nan nan nan nan nan nan nan nan nan nan -0 -0 -0 -0 -0 -0 -0 -0 -0 -0
nan nan nan nan nan nan nan nan nan nan nan nan nan nan nan nan nan nan nan nan nan nan nan nan nan nan nan nan nan nan nan nan nan nan nan nan nan nan nan nan nan nan nan nan nan nan nan nan nan -1 nan nan nan nan nan nan nan nan nan nan nan nan nan nan nan nan nan nan nan nan nan nan nan nan nan -0 -0 -0 -0 -0 -0 -0 -0 -0 -0 -0
nan nan nan nan nan nan nan nan nan nan nan nan nan nan nan nan nan nan nan nan nan nan nan nan nan nan nan nan nan nan nan nan nan nan nan nan nan nan nan nan nan -5 nan nan nan nan nan nan nan nan nan nan nan nan nan nan nan nan nan nan nan nan nan nan nan nan nan nan nan nan nan nan nan nan nan -0 -0 -0 -0 -0 -0 -0 -0 -0 -0 -0
nan nan nan nan nan nan nan nan nan nan nan nan nan nan nan nan nan nan nan nan nan nan nan nan nan nan nan nan nan nan nan nan nan nan nan nan nan nan nan nan nan -5 -6 nan nan nan nan nan nan nan nan nan nan nan nan nan nan nan nan nan nan nan nan nan nan nan nan nan nan nan nan nan nan nan nan nan nan nan nan nan nan -3 -0 -0 -0 -0
nan nan nan nan nan nan nan nan nan nan nan nan nan nan nan nan nan nan nan nan nan nan nan nan nan nan nan nan nan nan nan nan nan nan nan nan nan nan nan nan nan nan nan nan nan -7 nan nan nan nan nan nan nan nan nan nan nan nan nan nan nan nan nan nan nan nan nan nan nan nan nan nan nan nan nan nan nan nan nan nan nan nan -7 nan nan -0
nan nan nan nan nan nan nan nan nan nan nan nan nan nan nan nan nan nan nan nan nan nan nan nan nan nan nan nan nan nan nan nan nan nan nan nan nan nan nan nan nan nan nan nan nan -8 -6 nan nan nan nan nan nan nan nan nan nan nan -2 nan nan nan nan nan nan nan nan nan nan nan nan nan nan nan nan nan nan nan nan nan nan nan nan nan nan nan
nan nan nan nan nan nan nan nan nan nan nan nan nan nan nan nan nan nan nan nan nan nan nan nan nan nan nan nan nan nan nan nan nan nan nan nan nan nan nan nan nan nan nan nan nan nan -5 nan nan nan nan nan nan nan nan nan nan -0 -0 nan nan nan nan nan nan nan nan nan nan nan nan nan nan nan nan nan nan nan nan nan nan nan nan nan nan nan
nan nan nan nan nan nan nan nan nan nan nan nan nan nan nan nan nan nan nan nan nan nan nan nan nan nan nan nan nan nan nan nan nan nan nan nan nan nan nan nan nan nan nan nan nan nan -4 -2 -2 nan nan nan nan nan nan nan nan -2 -0 nan nan nan -3 nan nan nan nan nan nan nan -9 nan nan nan nan nan nan nan nan nan nan nan nan nan nan nan
nan nan nan nan nan nan nan nan nan nan nan nan nan nan nan nan nan nan nan nan nan nan nan nan nan nan nan nan nan nan nan nan nan nan nan nan nan nan nan nan nan nan nan nan nan nan -4 -1 -1 -4 nan nan nan nan nan nan nan nan nan -4 -4 nan nan nan nan nan nan nan nan nan nan nan nan nan nan nan nan nan nan nan nan -2 -2 nan nan nan
nan nan nan nan nan nan nan nan nan nan nan nan nan nan nan nan nan nan nan nan nan nan nan nan nan nan nan nan nan nan nan nan nan nan nan nan nan nan nan nan nan nan nan nan nan nan nan nan nan nan nan nan nan nan nan nan nan nan nan nan nan nan nan nan nan nan nan nan nan nan nan nan nan nan nan nan nan nan nan nan nan nan nan nan nan nan
nan nan nan nan nan nan nan nan nan nan nan nan nan nan nan nan nan nan nan nan nan nan nan nan nan nan nan nan nan nan nan nan nan nan nan nan nan nan nan nan nan nan nan nan nan nan nan nan nan nan nan nan nan nan nan nan nan nan nan -3 -3 -5 nan nan nan nan nan nan nan nan nan nan nan nan nan nan nan nan nan nan nan nan nan nan nan nan
nan nan nan nan nan nan nan nan nan nan nan nan nan nan nan nan nan nan nan nan nan nan nan nan nan nan nan nan nan nan nan nan nan nan nan nan nan nan nan nan nan nan nan nan nan nan nan nan nan nan nan nan nan nan nan nan nan nan nan -2 -2 -5 nan nan nan nan nan nan nan nan nan nan nan nan nan nan nan nan nan nan nan nan nan nan nan nan
nan nan nan nan nan nan nan nan nan nan nan nan nan nan nan nan nan nan nan nan nan nan nan nan nan nan nan -2 nan nan nan nan nan nan nan nan nan nan nan nan nan nan nan nan nan nan nan nan nan nan nan nan nan nan nan nan nan nan nan nan nan nan nan nan nan nan nan nan nan nan nan nan nan nan nan nan nan nan nan nan nan nan nan nan nan nan
nan nan nan nan nan nan nan nan nan nan nan nan nan nan nan nan nan nan nan nan nan nan -0 -2 -2 -3 nan nan nan nan nan nan nan nan nan nan nan nan nan nan nan nan nan nan nan nan nan nan nan nan nan nan nan nan nan nan nan nan nan nan nan nan nan nan nan nan nan nan nan nan nan nan nan nan nan nan nan nan nan nan nan nan nan nan nan nan
nan nan nan nan nan nan nan nan nan nan nan nan nan nan nan nan -0 -0 nan nan nan nan nan nan nan -2 nan nan nan nan -1 -1 nan nan nan nan nan nan nan nan nan nan nan nan nan nan nan nan nan nan nan nan nan nan nan nan nan nan nan nan nan nan nan nan nan nan nan nan nan nan nan nan nan nan nan nan nan nan nan nan nan nan nan nan nan nan
nan nan nan nan nan nan nan nan nan nan nan nan nan nan nan nan nan nan nan nan nan nan nan nan nan -2 nan nan nan nan nan nan nan nan nan nan nan nan nan nan nan nan nan nan nan nan nan nan nan -10 -3 -4 nan nan nan nan nan nan nan nan nan nan nan nan nan nan nan nan nan nan nan nan nan nan nan nan nan nan nan nan nan nan nan nan nan nan
nan nan nan nan nan nan nan nan nan nan nan nan -2 -2 nan nan nan nan nan nan nan nan -5 -5 -5 nan nan nan nan nan nan nan nan nan nan nan nan nan nan nan nan nan nan nan nan nan nan nan nan nan -13 -0 -3 -3 nan nan nan nan nan nan nan nan nan nan nan nan nan nan nan nan nan nan nan nan nan nan nan nan nan nan nan nan nan nan nan nan
Wind_Speed
1 1 2 2 2 2 2 3 3 3 3 3 3 3 3 4 4 5 6 6 5 4 4 4 4 4 4 3 2 1 0 1 2 3 4 4 5 5 6 7 8 8 9 9 9 9 8 8 7 8 8 9 10 11 11 12 12 12 13 12 12 12 12 12 12 12 12 11 11 11 10 10 10 10 10 10 10 10 11 11 11 11 11 11 11 11
1 1 1 2 2 2 2 3 3 3 3 3 3 3 3 4 4 4 4 5 4 4 3 3 3 4 4 3 2 1 1 2 3 4 4 5 5 6 7 7 8 9 9 9 9 8 7 7 7 8 9 10 11 12 12 12 12 12 12 12 12 12 11 11 11 11 11 11 11 10 10 10 10 10 10 10 10 11 11 11 11 11 11 11 11 11
1 1 1 2 2 2 2 3 3 4 4 4 3 3 3 4 3 3 3 3 3 3 2 2 2 2 2 1 1 2 2 3 4 4 5 5 6 7 7 8 9 9 9 9 8 7 7 7 8 9 10 11 11 12 13 13 12 12 12 12 11 11 11 11 11 11 10 10 10 10 10 10 10 10 10 10 11 11 12 12 12 12 11 11 11 11
1 1 1 2 2 2 2 2 3 3 4 4 4 4 4 3 3 2 2 2 2 2 2 1 1 1 1 0 1 2 3 4 4 5 5 6 7 8 8 9 9 9 8 8 7 7 7 8 9 9 10 11 12 12 13 12 12 12 11 11 11 11 10 10 10 10 10 10 10 10 10 10 10 10 10 11 11 11 12 12 12 11 11 11 11 11
1 1 1 1 2 2 2 2 3 3 3 3 3 3 3 3 2 2 2 1 1 1 1 1 1 1 1 1 2 3 4 4 5 5 6 7 8 9 9 9 8 7 7 6 6 7 7 8 9 10 11 12 12 12 12 12 12 11 11 10 10 10 10 10 10 9 9 10 10 10 10 10 10 10 10 11 11 11 12 12 12 11 11 11 11 11
1 2 1 1 1 1 1 2 2 2 2 2 2 2 2 2 1 1 1 1 1 1 0 0 1 1 1 1 2 4 5 5 6 6 7 8 9 9 8 7 6 6 6 6 7 8 8 9 10 11 12 12 12 12 12 11 11 10 10 10 10 10 10 10 10 10 10 10 10 10 10 10 10 11 11 11 11 11 12 12 12 11 11 11 11 11
1 1 1 1 1 1 1 1 1 2 2 1 1 2 1 1 1 1 1 0 0 0 0 0 0 1 1 2 3 4 5 6 7 7 8 8 8 7 6 5 5 5 6 7 8 8 9 10 11 11 12 12 12 12 11 11 10 10 10 10 10 10 10 10 10 10 10 10 10 11 11 11 11 11 11 11 12 12 12 12 12 12 12 11 11 11
1 0 0 1 1 1 1 1 1 1 1 1 1 1 1 1 0 0 0 0 0 0 0 1 1 1 1 1 2 3 3 4 5 6 7 6 5 4 3 4 4 5 6 7 8 9 10 11 11 11 12 12 12 12 11 11 10 10 10 10 10 10 10 11 11 11 11 11 11 11 11 11 11 11 12 12 12 12 12 12 12 12 12 12 12 12
1 1 0 0 1 1 1 0 1 1 1 1 1 1 1 1 0 0 0 0 0 0 0 1 1 1 1 1 1 1 2 2 3 3 3 2 1 2 2 3 4 5 7 8 9 10 10 11 11 12 12 12 12 12 11 11 11 11 11 11 11 11 11 11 11 11 11 11 11 11 12 12 12 12 12 12 12 12 12 12 12 12 12 12 12 12
1 1 0 0 0 0 1 0 0 1 1 1 1 1 1 1 0 0 1 1 1 0 0 0 1 1 1 1 2 2 2 3 3 3 1 1 1 2 3 3 4 5 7 8 9 10 11 11 12 12 12 12 12 12 12 11 11 11 11 11 11 11 11 11 12 12 12 12 12 12 12 12 12 12 12 12 12 12 12 12 12 12 12 12 12 12
1 0 0 1 1 1 1 1 1 1 1 1 1 1 0 1 1 0 1 1 1 1 1 0 0 1 1 2 2 2 2 2 3 3 3 4 4 4 4 4 4 5 7 8 9 10 10 11 11 12 12 12 12 12 11 11 11 11 11 11 11 11 11 12 12 12 12 12 12 12 12 12 12 12 12 12 12 12 12 12 12 12 12 12 12 13
0 0 0 0 1 1 1 1 1 1 1 1 1 0 1 0 0 1 1 1 1 1 1 1 1 1 1 2 2 3 2 2 2 3 3 4 4 4 4 3 4 4 5 6 8 9 10 11 11 11 11 10 11 11 10 10 10 11 11 11 11 11 11 11 12 12 12 12 12 12 12 12 12 12 12 12 12 13 12 12 12 12 12 13 13 13
1 1 1 1 1 1 1 1 1 1 1 0 0 1 1 1 0 1 1 1 1 1 1 2 2 2 1 1 1 2 2 2 2 2 2 2 2 2 2 2 2 2 3 3 4 6 8 9 9 9 9 9 9 10 10 10 10 10 10 11 11 11 11 11 11 12 12 12 12 12 12 12 12 13 13 13 13 13 13 13 13 13 13 13 13 13
1 1 1 1 1 1 1 1 1 0 0 0 1 1 1 1 1 1 1 0 1 1 1 1 2 2 2 1 1 1 1 1 2 2 2 2 2 1 0 1 1 2 1 2 3 4 6 6 6 7 8 8 9 9 9 9 10 10 10 10 11 11 11 11 11 12 12 12 12 12 12 13 13 13 13 13 13 13 13 13 13 13 13 13 13 14
1 1 1 1 1 1 1 1 0 0 1 1 1 1 1 1 2 2 1 0 1 2 2 2 2 2 2 2 1 1 1 1 1 2 2 2 2 1 0 1 2 2 1 2 3 4 5 4 3 4 5 6 7 8 9 9 9 10 10 10 11 11 11 11 11 12 12 12 12 12 13 13 13 13 13 13 13 13 13 13 13 13 13 13 13 14
0 1 1 0 1 1 1 0 0 1 1 1 1 1 1 1 1 1 1 0 1 2 2 2 2 2 2 2 1 1 1 2 2 1 1 2 2 1 1 1 2 2 2 2 3 3 3 2 2 3 4 6 8 10 10 9 9 10 10 10 11 11 11 11 11 12 12 12 12 13 13 13 13 13 13 13 13 13 13 13 13 13 13 13 14 14
1 1 1 0 1 2 2 1 0 1 1 1 1 1 1 1 1 1 1 1 1 2 2 2 1 1 2 2 2 1 1 1 1 0 1 2 2 1 1 1 2 3 3 3 3 3 3 3 3 3 4 7 9 10 10 10 10 10 10 10 11 11 11 11 12 12 12 12 13 13 13 13 13 13 13 13 13 13 13 13 13 13 14 14 14 14
0 1 1 1 1 2 2 1 1 0 0 0 0 1 1 1 1 1 1 1 2 2 2 2 1 1 1 2 2 2 1 1 1 0 1 3 3 2 1 1 1 2 3 3 3 3 3 3 3 3 5 8 9 10 10 10 10 11 11 11 11 11 12 12 12 12 12 12 13 13 13 13 13 13 13 13 13 13 13 13 13 14 14 14 14 15
1 1 2 1 1 1 1 1 1 1 1 1 1 1 1 1 1 1 1 1 2 2 2 2 1 1 2 2 2 2 1 0 0 1 2 4 3 1 1 0 1 2 2 3 3 3 3 3 4 6 8 9 10 11 11 11 11 12 12 12 12 12 12 12 12 12 12 12 13 13 13 13 13 13 13 13 13 13 13 13 14 14 14 14 15 15
1 2 2 2 2 1 1 1 2 3 3 2 2 2 1 1 1 1 1 1 1 2 2 2 2 2 2 3 3 2 1 0 1 1 2 3 3 2 2 1 1 1 2 3 3 3 2 3 4 5 8 9 10 11 12 12 12 12 12 12 12 12 12 12 12 12 12 12 12 12 12 12 12 12 12 12 13 13 13 14 14 14 14 15 15 15
1 2 3 3 2 2 1 2 3 3 3 3 3 2 1 1 1 0 0 1 1 1 1 1 2 2 2 2 3 2 1 1 1 1 2 3 3 2 1 1 1 1 3 3 3 3 2 2 3 4 6 9 11 12 13 13 13 13 13 12 12 12 12 12 12 12 12 12 12 11 11 11 12 12 12 12 13 13 13 14 14 14 15 15 15 16
2 2 3 3 3 2 2 3 3 3 4 4 3 2 2 1 1 1 1 2 2 2 2 2 2 2 2 2 2 2 0 1 1 0 1 2 3 3 1 1 1 1 2 3 3 2 2 2 3 4 6 10 12 13 14 13 13 13 12 12 12 11 11 11 11 11 11 11 11 11 11 11 11 12 12 13 13 14 14 14 15 15 15 15 16 16
2 2 3 3 3 3 2 2 2 2 4 3 3 2 3 3 2 2 3 3 3 3 3 2 1 1 1 2 2 1 0 1 2 2 1 1 3 3 1 1 1 1 3 3 3 3 2 2 3 4 7 11 13 13 14 13 12 12 11 11 11 10 10 10 10 10 10 10 10 11 11 11 12 13 13 13 14 14 15 15 15 15 15 16 16 16
2 2 2 3 3 2 1 1 1 1 2 2 2 2 2 2 2 2 3 3 3 3 2 0 1 2 1 2 2 2 1 0 2 2 2 1 3 3 2 1 1 2 3 3 2 2 3 3 4 4 5 9 11 12 12 11 11 10 10 9 9 9 9 9 9 9 9 10 11 11 12 12 13 13 14 14 14 15 15 15 15 15 15 15 16 16
2 2 1 2 2 2 1 1 1 2 2 2 2 1 1 2 2 2 2 2 2 2 1 1 2 2 2 3 3 2 1 0 1 2 1 1 2 3 2 1 1 2 3 3 2 2 3 4 4 4 4 6 8 10 10 9 9 8 8 8 8 8 8 9 9 10 10 11 12 12 13 13 14 14 14 14 14 14 15 15 15 15 15 15 15 16
3 2 2 2 2 3 4 5 4 2 1 2 3 2 2 2 2 2 2 1 1 1 1 2 2 2 2 2 2 2 2 1 1 1 2 1 1 2 2 1 0 1 3 3 3 3 3 4 4 3 2 3 5 7 7 7 7 7 7 8 8 9 9 10 11 11 12 12 13 13 13 13 14 14 14 14 14 14 14 14 14 15 15 15 15 15
7 7 7 7 8 8 9 9 9 8 6 2 2 3 3 3 2 1 1 1 1 1 1 1 2 2 2 2 2 2 2 1 1 1 2 1 0 2 2 1 1 1 3 4 4 4 5 5 3 2 1 1 2 4 6 6 7 8 9 9 10 11 11 12 12 13 13 13 13 13 13 13 13 13 13 13 14 14 14 14 14 14 15 14 13 12
8 8 8 8 8 8 8 8 8 9 9 8 7 3 2 3 2 2 2 2 1 1 1 2 2 3 2 2 2 2 2 1 1 1 2 2 0 2 2 1 1 1 3 4 4 4 4 4 3 2 2 2 2 3 4 6 8 9 10 11 12 12 13 13 13 13 13 13 13 13 13 13 13 13 13 13 14 14 14 14 14 14 13 12 9 7
7 7 7 7 7 7 6 6 7 7 8 8 8 5 2 2 3 3 3 2 2 1 2 2 3 2 2 2 2 2 2 1 1 1 2 2 0 2 2 1 1 1 2 4 4 3 2 2 2 2 2 2 2 2 3 5 6 7 9 11 12 12 12 12 12 12 12 12 12 13 13 13 13 13 14 14 14 14 14 15 14 13 10 8 7 5
5 5 5 5 5 5 4 4 5 6 7 7 6 4 2 2 3 3 3 3 3 2 2 2 2 2 1 1 2 2 2 2 1 1 2 2 1 1 2 2 1 1 2 3 3 3 2 2 2 2 2 2 2 2 2 3 3 4 5 7 9 10 11 11 12 12 12 12 12 13 13 13 14 14 14 14 15 15 15 15 14 11 7 6 5 5
3 3 3 3 3 3 3 2 3 4 5 5 5 3 2 1 2 2 3 3 3 3 3 3 2 2 2 0 0 1 2 3 2 2 3 2 1 1 1 1 1 1 0 2 2 3 3 3 2 2 2 2 2 2 2 2 3 3 3 4 5 6 9 10 11 11 11 12 12 13 14 14 14 15 15 15 15 15 16 16 14 11 6 5 5 5
2 2 2 2 2 2 2 2 2 2 3 3 3 3 2 1 1 1 2 3 3 3 3 3 3 2 2 2 2 2 2 3 3 3 3 2 1 1 1 1 1 1 1 0 0 1 2 2 3 2 2 3 3 3 3 3 3 3 3 3 3 4 7 8 9 9 10 11 12 13 14 14 15 15 15 15 16 16 16 16 15 11 7 5 5 6
1 2 2 2 2 2 2 2 2 2 2 2 2 2 2 1 1 0 1 1 2 3 3 3 3 2 2 2 3 3 2 2 3 5 5 2 1 1 1 1 1 2 1 1 1 2 2 3 4 4 4 3 3 3 3 3 3 3 3 2 2 3 5 6 6 6 7 9 10 11 12 13 14 14 15 15 16 16 16 16 15 13 9 7 6 6
2 2 2 2 2 2 2 2 2 2 2 2 1 1 1 1 1 1 0 0 1 1 3 3 3 3 2 2 2 3 3 2 4 5 6 3 1 1 1 2 2 2 2 2 2 2 3 3 4 5 5 4 3 3 2 2 3 2 2 2 2 2 3 3 4 5 6 6 6 7 8 9 11 12 13 14 14 15 15 16 16 15 13 10 7 6
2 2 2 2 2 3 3 3 2 2 2 2 1 1 1 1 1 0 0 0 1 1 2 3 3 3 3 2 2 2 3 2 3 3 4 2 1 2 2 2 2 2 2 2 2 2 3 4 5 5 6 5 4 3 2 2 2 2 2 2 3 3 3 3 3 4 5 5 5 5 5 5 6 7 9 11 12 14 15 15 16 16 16 14 12 9
2 2 2 2 2 2 2 3 3 3 2 2 2 2 1 1 1 1 1 1 1 2 2 2 3 3 3 3 3 3 3 3 3 3 3 2 2 2 2 2 2 2 2 3 3 3 3 4 5 6 6 6 5 4 2 2 1 2 2 2 3 4 4 4 4 4 4 4 5 4 4 4 4 5 6 10 12 14 15 15 16 16 16 16 15 13
2 2 2 2 1 1 1 2 2 2 2 2 2 2 2 2 2 2 2 1 2 2 2 3 3 4 4 4 4 4 4 3 3 3 4 3 2 2 3 3 3 3 3 3 3 3 4 5 5 6 6 5 5 4 4 3 3 3 3 3 3 4 4 5 5 4 4 5 5 5 4 4 4 5 6 10 12 13 14 15 15 15 16 16 16 16
1 2 2 2 1 1 1 1 2 2 2 1 2 2 3 3 3 3 3 2 2 2 3 3 3 4 6 6 5 5 4 4 4 4 4 3 3 3 3 3 4 4 3 3 3 3 4 5 5 6 5 5 5 6 5 5 5 5 4 4 4 4 4 4 4 4 3 4 5 6 6 5 5 5 5 7 7 7 7 8 9 11 13 13 14 15
1 2 2 2 1 1 1 2 2 2 2 1 2 2 2 3 3 3 2 2 3 3 3 3 3 4 5 6 6 6 6 5 5 5 5 4 3 3 3 4 4 4 3 3 3 3 4 4 5 5 5 5 6 6 5 5 5 6 6 6 5 4 4 3 3 3 3 4 5 6 6 5 5 4 4 4 4 4 5 5 5 7 8 7 9 11
1 2 2 2 2 1 2 2 3 2 1 1 2 2 2 2 2 2 2 2 2 2 3 3 3 3 4 4 5 5 5 5 5 5 4 3 3 3 3 4 4 4 3 3 3 4 4 5 6 6 6 6 6 6 6 6 6 6 8 6 5 4 3 3 3 3 3 4 4 5 5 4 4 4 4 4 4 4 5 5 5 5 5 5 5 6
1 2 2 2 2 2 2 3 2 1 1 1 1 1 1 2 2 2 2 2 2 2 1 1 2 2 3 3 3 4 4 5 5 5 4 4 4 4 4 4 4 4 4 4 4 4 5 5 6 7 6 6 7 8 8 7 8 9 9 8 7 6 6 6 5 4 4 4 4 4 5 5 6 5 5 5 5 5 5 6 6 5 5 5 5 5
2 2 2 2 2 2 2 2 1 1 0 0 1 1 1 1 2 2 2 3 3 2 2 1 2 2 3 3 3 3 4 4 5 5 5 5 6 5 4 4 4 4 4 4 5 5 5 6 6 6 6 6 6 7 8 8 8 8 8 8 8 9 8 7 5 3 3 4 4 5 6 6 6 5 6 6 6 5 6 6 7 8 7 6 5 5
2 2 2 2 2 2 2 1 1 0 0 1 1 1 1 1 1 1 1 2 2 2 2 1 1 1 2 3 3 3 3 3 4 4 5 5 5 5 5 5 5 4 4 4 5 5 6 6 6 6 6 6 6 7 9 9 8 8 7 7 8 7 6 5 3 2 3 4 5 5 5 5 5 6 6 6 6 5 6 7 9 9 9 7 6 6
2 2 2 2 2 2 1 1 0 0 1 1 1 2 2 1 1 1 1 1 2 2 2 1 1 1 2 3 3 3 3 3 3 3 3 4 5 5 5 5 5 5 5 4 4 4 5 6 6 6 6 6 6 8 9 9 8 8 7 7 7 7 7 6 6 6 6 6 5 5 5 5 6 6 7 7 6 6 5 5 6 6 7 7 7 6
2 2 2 2 2 2 1 1 0 0 1 1 2 2 2 2 1 1 1 1 2 2 2 1 1 2 2 3 3 2 2 2 2 2 3 4 5 6 5 5 5 5 5 5 5 5 5 5 6 5 5 6 7 8 8 9 9 9 8 8 8 8 8 7 7 7 7 7 6 5 5 5 6 6 7 8 7 7 6 6 6 6 6 6 6 7
1 1 1 1 1 2 2 2 2 1 1 1 2 2 2 2 1 1 2 2 2 2 2 2 2 2 3 3 3 3 2 2 2 2 3 3 3 3 3 4 4 4 4 5 5 5 5 6 5 5 5 6 7 8 8 8 8 8 8 8 8 7 8 7 7 7 7 7 7 6 6 5 6 6 7 8 8 8 7 7 7 7 6 6 6 7
1 1 1 1 2 2 2 2 2 2 2 2 2 2 2 2 2 2 2 2 2 2 2 2 2 2 3 3 3 3 3 3 3 2 2 2 3 3 3 3 4 5 5 5 5 6 6 6 6 6 6 7 8 8 8 8 8 8 8 8 7 7 7 7 6 6 7 7 7 6 5 5 6 7 8 9 8 8 7 7 7 7 6 6 6 6
2 1 1 1 1 1 2 2 2 2 2 2 2 2 2 2 3 3 2 2 2 2 3 2 2 3 3 3 3 4 4 4 4 3 2 2 2 3 3 3 3 4 4 5 6 6 6 7 7 7 7 7 8 9 9 8 7 7 7 7 7 7 8 7 7 6 7 7 6 5 4 5 6 7 8 9 9 9 8 7 7 6 6 6 6 7
0 0 0 0 1 1 2 2 3 3 3 3 3 2 2 3 4 5 3 2 2 2 2 3 3 3 3 3 4 4 5 5 4 3 3 2 2 2 2 2 2 2 3 4 4 5 6 7 8 9 9 9 9 9 9 8 8 7 7 7 7 7 7 7 7 7 7 6 6 5 4 5 6 6 7 9 10 11 10 9 8 7 6 6 7 7
1 1 0 0 1 2 3 3 3 4 4 4 3 3 2 2 2 3 3 2 2 2 2 3 3 4 4 4 4 4 5 4 4 4 3 2 2 2 2 2 2 3 3 3 3 3 4 5 6 8 10 11 11 10 9 9 8 7 7 7 6 6 7 7 7 6 6 6 6 5 5 5 6 6 6 8 10 11 11 10 9 8 6 6 6 7
1 0 0 1 1 2 2 3 3 4 4 4 4 4 3 3 2 2 2 2 2 2 2 2 3 4 4 5 5 5 5 5 4 4 4 3 2 2 2 2 3 3 4 4 4 3 3 3 3 5 7 10 12 11 8 7 7 6 7 6 5 5 6 6 6 6 6 6 6 6 6 6 6 6 5 7 8 10 11 10 9 8 6 6 6 7
Wind_Direction
26 19 6 11 25 38 28 25 39 60 72 71 72 75 79 70 59 54 58 57 55 53 54 50 47 47 50 61 72 81 114 225 238 242 243 243 245 248 252 256 260 262 264 264 264 264 265 266 269 273 277 279 280 281 281 281 281 281 282 281 282 282 283 283 284 286 287 289 291 293 295 298 300 301 301 299 297 295 292 290 288 287 285 284 282 281
24 21 9 15 29 46 42 29 38 54 69 72 73 74 77 75 68 62 59 57 55 52 51 49 47 43 38 30 21 349 274 252 247 246 245 245 247 250 255 259 262 263 264 264 265 266 269 273 278 282 285 287 287 286 286 284 283 282 281 281 281 281 281 282 282 284 286 288 290 292 294 296 296 296 295 292 290 287 284 282 281 280 279 279 278 278
16 20 13 17 28 38 41 36 41 50 60 67 70 71 76 79 78 74 71 67 64 62 61 62 63 60 50 19 325 283 267 257 252 251 251 251 253 257 260 263 264 264 264 265 266 269 274 281 286 289 291 291 290 288 287 284 282 280 279 278 278 278 278 279 280 282 284 285 287 288 290 290 289 288 287 285 282 281 279 278 278 279 279 279 279 279
15 25 23 25 30 34 34 37 44 52 58 63 64 64 66 73 76 78 78 81 82 84 88 95 105 113 114 232 268 265 258 254 254 256 258 261 262 263 263 263 263 262 261 264 269 275 282 288 293 295 295 293 291 288 285 282 280 278 277 277 277 277 278 279 280 282 283 285 285 286 286 285 284 283 282 281 280 280 279 279 280 280 280 280 279 278
22 26 27 34 39 40 32 35 46 56 64 65 62 59 58 63 70 76 77 84 93 105 116 127 141 154 163 205 250 256 254 254 257 262 265 267 266 265 264 263 262 262 264 271 279 286 292 296 298 298 297 294 291 288 284 281 280 278 278 278 279 280 281 282 284 285 286 286 287 286 286 285 284 283 282 281 280 280 280 280 280 280 279 278 278 277
29 28 31 41 49 51 40 40 51 62 68 66 61 59 59 62 69 77 83 91 98 117 149 166 178 192 206 242 258 261 262 264 267 270 272 272 270 268 267 268 269 273 280 287 293 298 300 301 301 299 297 294 291 288 285 283 282 282 283 284 285 287 287 288 288 288 288 288 287 287 286 285 284 283 282 281 280 279 279 279 279 278 278 277 277 277
51 33 36 55 65 65 56 55 63 75 84 79 71 65 63 66 70 77 92 95 104 128 223 236 244 248 257 269 273 275 277 280 282 283 282 280 279 279 279 285 291 296 300 303 304 304 304 303 301 299 296 294 292 290 289 288 288 288 289 290 291 291 291 290 289 288 288 287 286 285 284 283 282 281 280 279 278 277 277 277 277 277 277 277 277 277
112 81 52 87 103 102 83 67 70 82 101 109 108 100 87 85 86 93 104 25 259 257 263 278 280 276 272 285 291 293 293 290 290 290 287 291 298 307 311 318 319 317 315 312 310 307 305 303 301 298 296 295 293 293 293 292 292 292 292 292 292 291 289 288 287 286 285 285 284 283 282 281 280 279 278 276 275 275 274 274 275 275 275 276 276 276
132 142 158 139 139 131 120 82 33 33 62 104 120 127 135 130 128 135 306 280 259 236 212 265 276 279 286 343 344 326 302 280 269 263 265 278 313 339 348 349 340 331 323 318 314 310 307 303 300 298 296 294 293 293 292 292 292 291 291 290 289 288 286 285 284 283 282 282 281 280 279 278 277 276 275 274 273 272 272 272 272 273 273 274 275 276
101 121 128 332 11 123 127 123 25 4 19 53 86 112 130 137 135 335 322 299 296 302 119 244 268 282 308 1 12 359 327 294 277 269 286 1 19 21 12 4 351 336 326 321 316 311 307 303 299 296 294 291 290 289 289 289 288 288 287 286 285 284 282 281 281 280 279 279 278 277 276 275 274 273 272 271 270 270 270 270 270 270 271 273 274 275
42 35 59 345 344 10 76 95 84 51 38 44 47 59 138 161 165 212 283 289 307 341 13 2 324 315 333 352 359 2 358 335 326 332 354 2 9 13 10 1 347 334 325 319 314 310 306 301 297 294 291 288 286 285 285 285 284 284 283 281 281 280 279 278 277 277 276 276 275 274 274 273 272 271 270 270 269 269 269 269 269 270 270 271 273 274
28 355 18 2 1 14 37 59 74 77 75 68 44 329 269 255 170 171 214 249 281 324 343 346 354 6 10 355 350 351 357 355 348 344 347 352 359 4 6 355 341 329 321 315 309 305 301 298 296 293 290 288 286 285 284 283 282 281 280 278 277 276 275 275 274 274 273 273 272 272 271 271 270 270 270 270 269 269 269 269 269 270 270 271 272 273
10 6 22 18 17 18 30 43 47 48 56 101 170 226 250 307 13 94 164 211 262 315 331 334 337 341 356 358 349 343 346 348 344 339 337 335 341 352 0 344 326 315 312 307 300 295 294 294 294 294 292 291 290 289 288 286 284 281 278 275 274 273 272 272 271 271 271 271 271 271 271 271 271 271 271 271 271 271 271 271 271 271 271 272 272 273
6 13 27 20 8 1 14 39 49 38 277 215 206 214 238 339 26 55 91 5 323 333 352 349 334 326 330 339 340 338 344 350 351 347 337 316 305 303 332 300 286 278 279 288 285 282 282 288 292 293 293 293 293 292 290 288 284 280 276 273 271 270 270 270 270 270 270 270 270 271 271 272 272 273 273 272 272 272 272 272 272 272 272 272 273 274
24 37 44 13 340 329 341 18 7 240 251 273 303 335 1 20 33 51 84 355 329 343 11 10 351 332 323 324 332 345 4 33 26 4 336 307 288 261 196 273 276 271 261 273 275 278 282 286 286 284 285 286 286 285 284 281 278 276 274 272 270 270 271 270 271 271 271 271 271 272 272 272 273 273 273 273 274 274 274 274 274 274 274 274 274 274
93 91 99 305 290 292 290 280 244 249 275 316 350 15 40 33 35 51 92 96 358 5 30 28 3 336 322 323 343 9 29 55 57 31 325 296 284 253 156 260 284 283 274 270 271 275 282 279 269 265 271 278 281 282 283 279 277 275 275 274 273 274 274 274 274 274 274 273 273 273 273 272 272 273 273 274 274 275 276 276 276 276 276 276 275 275
104 110 133 172 266 277 276 277 258 251 288 330 4 30 61 63 69 81 102 104 68 50 57 76 63 333 313 315 328 353 27 65 82 82 296 282 275 253 149 188 271 281 283 276 272 273 279 277 273 269 269 276 281 284 286 283 282 281 280 280 279 279 279 278 277 276 276 275 274 273 273 273 273 273 273 274 275 276 276 277 277 277 277 277 276 276
131 147 146 169 235 263 275 285 282 261 262 315 31 52 61 65 87 102 111 111 101 92 85 96 120 167 274 289 296 311 356 67 99 315 295 283 277 269 125 161 241 266 278 277 273 270 269 268 267 269 274 283 287 290 291 291 289 288 287 286 284 282 281 280 278 277 276 275 275 274 274 273 273 274 274 275 276 276 277 277 278 278 278 278 277 277
193 189 170 179 206 242 272 262 239 215 198 190 166 130 81 44 52 72 88 107 121 127 131 132 155 188 212 249 265 283 329 74 26 318 305 293 290 298 45 50 273 269 275 273 271 269 266 266 271 276 282 289 293 294 295 294 293 291 290 288 285 283 281 280 278 277 277 276 275 275 275 274 275 275 276 277 278 278 278 278 278 278 278 278 278 278
192 210 202 187 176 175 284 254 228 207 193 177 151 128 112 82 53 58 72 96 121 133 137 146 176 209 217 244 262 277 294 22 12 336 302 292 292 304 17 28 348 296 287 278 273 269 270 274 281 286 289 291 293 294 295 294 292 291 289 287 285 283 281 280 279 278 277 277 277 277 276 277 277 278 279 279 280 280 280 280 279 279 279 279 279 279
175 221 222 186 160 142 183 234 224 206 179 149 126 109 111 103 82 70 145 126 120 116 115 151 200 215 212 240 260 273 299 50 38 352 308 298 295 302 354 29 18 316 292 281 277 275 277 280 282 283 284 288 290 291 292 291 290 289 288 286 284 283 281 280 279 279 278 278 279 279 279 279 280 280 281 281 281 281 281 280 280 280 279 279 278 278
161 211 222 191 175 170 193 217 213 193 166 146 132 126 147 150 167 208 199 174 167 170 179 203 216 219 213 243 260 271 302 95 104 95 337 308 299 296 323 21 21 313 281 277 278 281 284 280 274 273 276 283 286 289 290 290 290 289 288 287 285 283 282 281 281 281 281 281 282 283 283 283 283 283 283 283 283 282 282 281 280 279 279 278 277 277
150 182 202 193 191 196 204 216 207 185 168 162 163 169 175 172 180 192 190 180 178 180 186 203 226 247 241 260 272 285 338 123 123 119 97 290 285 286 301 1 1 300 271 271 278 287 294 280 269 268 274 281 284 287 289 290 290 290 289 288 287 286 285 285 285 286 286 288 289 289 289 289 288 287 286 285 284 283 282 281 280 279 278 277 276 275
140 162 182 189 195 203 212 221 207 187 173 170 169 168 169 167 166 165 164 158 155 155 158 147 355 347 321 308 305 307 324 101 112 111 115 247 267 275 294 344 328 291 273 267 273 287 296 283 269 262 266 276 281 285 289 292 294 294 294 293 293 293 293 294 294 296 296 296 296 295 294 292 291 289 288 286 285 283 282 280 279 278 277 276 276 275
129 146 170 181 188 193 204 226 204 183 170 158 146 136 140 129 117 106 98 103 112 120 116 31 2 347 329 333 323 310 301 41 117 123 132 235 268 277 285 305 291 281 279 278 277 281 287 284 276 266 259 271 280 287 294 299 303 305 305 305 306 307 307 306 306 305 303 301 299 297 295 293 291 289 287 285 284 282 281 280 279 278 278 277 277 276
94 95 91 69 45 26 13 7 2 350 198 159 154 148 141 124 106 91 75 97 130 158 286 310 309 303 301 316 305 291 279 274 150 146 147 192 277 288 288 291 279 281 286 287 284 280 281 282 279 273 265 277 292 301 309 317 322 324 325 322 320 318 316 313 310 308 305 302 299 297 294 292 290 288 287 286 284 283 282 282 281 280 280 280 279 278
59 53 46 37 27 17 9 1 351 342 332 305 223 184 150 142 131 126 175 187 179 185 252 275 280 283 289 290 276 268 266 248 198 169 150 133 278 288 287 303 330 308 295 293 289 284 282 282 284 290 307 314 318 323 329 336 339 339 336 329 324 320 316 312 309 306 303 300 298 296 293 292 290 289 288 287 287 286 285 284 284 284 283 282 281 279
47 44 40 34 26 17 8 358 346 336 329 314 302 287 138 147 158 187 216 204 179 171 226 249 264 272 274 263 257 258 269 256 219 170 137 114 156 268 275 301 327 321 303 301 297 291 287 287 295 309 324 316 312 320 334 341 342 338 331 324 319 315 312 309 307 305 302 300 298 296 294 293 292 291 291 290 290 289 288 288 287 286 285 284 282 279
36 37 38 34 27 19 9 357 345 334 325 314 312 319 42 141 168 193 211 181 154 155 214 234 241 244 247 257 268 279 290 281 248 170 127 113 172 259 274 306 320 321 319 314 313 312 310 302 301 303 303 302 305 313 320 334 334 328 319 314 311 309 307 306 305 303 302 300 298 297 296 295 294 294 294 293 293 292 291 290 290 288 286 283 280 277
12 14 17 16 15 10 2 351 339 333 329 322 324 336 39 134 169 181 180 152 145 156 199 221 224 224 228 290 318 320 304 286 253 177 134 129 187 264 288 314 320 325 345 335 330 326 321 309 298 285 282 295 300 303 300 310 307 301 298 300 301 301 301 302 302 302 301 300 299 298 297 296 296 295 295 295 294 293 292 292 291 289 285 282 278 276
349 348 342 339 340 342 339 333 331 333 336 340 348 2 32 107 153 163 155 150 153 164 185 200 205 198 178 158 315 302 289 272 238 175 139 140 189 251 261 314 314 309 12 6 349 330 317 311 301 291 285 297 298 294 289 282 277 273 272 281 287 290 292 296 298 300 300 299 298 298 297 296 296 295 295 295 294 293 293 292 291 289 285 281 277 274
326 324 314 308 310 315 323 329 333 338 343 353 0 8 14 39 97 142 154 157 159 163 172 185 189 187 176 180 195 220 249 252 219 182 147 142 179 233 204 275 300 295 218 63 2 306 303 301 300 299 301 302 298 291 283 272 265 261 260 264 268 276 284 290 295 298 298 298 297 296 295 295 295 294 294 294 294 293 292 292 291 289 285 281 277 274
304 301 300 306 311 316 324 335 341 346 348 353 357 4 10 15 26 70 170 171 162 159 163 171 178 184 188 199 211 226 245 241 207 183 163 150 171 243 227 265 288 292 274 251 228 232 255 278 291 299 301 296 289 281 273 262 255 250 247 249 255 267 277 284 289 291 291 292 292 292 292 293 293 292 292 292 292 292 291 291 289 288 285 281 277 275
314 311 314 322 326 327 330 338 345 349 349 348 354 6 24 15 15 14 263 231 192 173 166 167 170 175 182 205 228 243 256 243 208 189 175 166 189 252 266 275 283 288 289 276 259 249 256 270 284 294 299 296 289 276 263 256 251 246 231 230 242 259 269 275 278 279 281 282 284 285 286 287 288 288 289 289 289 289 289 288 287 285 283 279 276 274
329 324 323 331 336 336 336 340 343 344 343 342 345 352 7 9 2 344 257 241 232 218 197 182 176 174 175 188 215 241 256 253 235 217 199 196 220 264 278 274 275 279 284 280 277 274 275 277 283 290 296 299 297 287 261 244 242 242 231 227 235 247 256 262 267 273 278 278 277 276 274 275 276 279 282 283 284 285 286 286 285 284 283 282 280 278
334 321 315 325 333 336 334 335 336 335 332 326 328 332 341 337 327 300 255 234 233 234 233 222 210 198 188 192 207 228 246 250 255 257 252 248 255 269 277 273 272 272 277 278 279 280 282 285 287 289 292 294 296 295 282 258 249 252 257 248 247 250 253 255 258 263 272 275 276 274 270 267 265 266 270 277 280 283 285 286 286 286 285 285 283 282
326 307 299 307 319 329 325 321 319 317 314 312 318 325 331 325 315 303 283 254 239 239 245 246 242 238 233 226 225 231 243 250 256 260 264 260 257 258 265 269 270 268 266 273 277 281 283 287 289 289 287 286 289 294 299 301 298 291 283 277 271 267 265 261 257 256 263 269 272 274 272 269 267 266 268 276 280 284 286 287 287 287 286 285 284 283
323 302 293 294 296 307 303 296 287 281 280 294 307 315 318 310 301 294 287 272 254 244 243 245 248 250 249 252 252 253 255 257 256 255 253 249 245 246 253 263 265 263 257 261 268 275 280 284 288 290 288 283 283 287 296 303 304 301 296 290 283 275 269 263 258 255 256 263 270 274 275 273 272 270 272 276 279 281 282 281 280 280 282 282 282 282
307 292 287 282 268 245 248 256 255 253 254 269 288 298 300 293 286 279 275 267 254 244 236 239 246 253 255 258 260 261 260 255 250 247 245 240 236 238 245 255 260 260 256 254 256 260 266 272 277 282 286 289 290 290 293 295 297 299 301 298 291 279 264 261 258 256 255 260 269 274 277 275 273 270 269 269 269 270 272 270 269 270 274 277 279 279
265 268 269 263 244 221 223 238 244 249 259 282 296 300 300 296 296 293 286 274 263 250 236 234 243 256 260 262 262 262 260 255 249 245 240 233 228 230 237 245 253 257 256 251 248 249 253 260 266 270 275 282 287 291 292 291 293 297 301 302 299 293 286 285 280 274 267 264 268 273 277 274 269 267 268 267 266 269 275 276 274 272 271 272 275 278
229 248 258 258 248 235 233 239 243 249 263 307 322 323 318 321 325 327 325 320 312 301 285 273 280 290 294 283 273 264 258 256 249 243 237 230 227 228 232 237 243 249 252 250 249 248 248 255 261 266 269 275 280 284 285 286 290 293 297 295 294 295 298 294 289 282 278 274 274 276 280 282 282 281 280 279 275 271 271 273 273 271 269 264 263 266
212 228 247 250 249 248 248 248 246 241 211 315 331 322 318 323 326 328 329 329 322 317 319 330 332 330 324 312 299 285 269 258 248 240 237 231 227 226 228 233 236 240 245 250 251 251 249 253 258 263 267 273 278 282 282 283 285 287 287 288 292 295 295 290 284 275 276 280 281 284 286 288 288 286 283 279 273 267 265 264 265 266 267 263 259 257
213 220 229 231 232 232 232 235 246 311 17 1 335 311 290 282 286 297 306 303 297 295 298 302 306 308 305 302 300 296 285 273 259 247 239 233 229 227 229 230 232 235 239 248 253 255 254 254 256 260 264 269 273 277 280 283 285 284 281 283 289 294 295 293 290 285 280 281 282 283 283 282 280 279 278 277 274 269 266 264 264 265 265 265 262 259
210 216 218 222 223 223 215 183 128 35 1 335 313 296 280 267 260 267 281 274 275 278 286 285 277 274 276 283 282 281 281 286 288 281 260 242 233 229 231 230 231 232 232 241 251 258 262 259 259 259 262 265 269 271 275 280 282 283 281 280 280 280 279 288 295 296 291 286 282 280 278 279 280 281 281 279 277 273 267 263 260 259 258 257 256 255
207 219 225 247 268 278 278 265 250 277 305 296 286 281 279 273 268 265 265 264 271 275 269 265 278 289 284 283 279 277 276 288 301 306 297 276 260 249 239 233 231 232 233 236 243 250 259 263 265 266 265 264 265 267 271 276 279 281 281 279 278 275 273 280 286 289 288 286 284 280 277 278 280 282 282 281 278 275 270 265 261 258 254 250 249 249
232 253 274 297 306 302 291 286 280 274 272 271 269 269 271 275 274 268 261 258 260 264 257 243 253 271 282 287 291 294 291 288 289 293 298 296 292 280 259 242 236 234 237 239 242 244 248 256 263 269 272 269 266 264 265 270 274 278 279 279 279 278 277 278 279 280 281 283 282 280 277 277 279 280 281 282 281 278 274 270 266 263 259 252 248 246
209 227 268 282 282 278 279 286 288 286 282 275 268 265 267 273 278 276 267 254 249 252 255 248 250 263 276 286 292 295 293 289 282 274 273 281 285 284 277 260 246 239 239 243 245 246 246 247 250 256 263 268 269 268 266 265 268 271 275 278 279 279 278 278 277 276 275 275 277 278 280 280 280 280 280 282 282 281 278 272 268 264 261 258 253 250
209 222 250 261 265 269 277 285 289 289 287 280 271 263 262 266 274 279 273 261 260 269 280 277 274 274 277 281 282 284 286 287 284 276 266 264 264 268 271 270 260 251 246 247 249 249 248 244 242 242 247 256 264 268 270 268 266 268 271 275 277 277 276 276 276 275 273 271 270 270 273 276 278 280 283 285 285 283 282 278 275 270 266 263 260 257
162 139 174 240 263 273 281 285 286 284 281 279 273 265 255 259 272 279 276 270 268 272 278 278 279 279 279 279 280 282 284 286 287 285 278 268 261 262 269 275 274 269 263 257 254 253 252 248 241 237 236 243 252 261 267 268 267 266 268 269 270 272 273 275 275 275 275 274 271 268 265 268 271 275 281 283 284 284 285 283 280 276 270 266 263 261
47 72 114 227 249 258 268 274 277 278 278 279 278 273 263 254 253 256 254 252 253 255 259 267 275 281 284 285 285 285 284 285 285 284 282 274 268 265 273 279 284 287 286 279 272 267 264 258 247 238 233 235 241 249 260 264 266 266 265 264 265 267 271 274 275 276 276 277 276 272 269 269 269 270 272 276 279 282 284 284 281 278 274 270 267 265
32 59 126 211 239 251 259 265 269 271 273 276 278 277 274 266 255 245 235 235 242 251 261 268 276 281 284 285 284 283 282 281 281 282 282 281 277 274 277 282 288 293 295 294 291 288 284 282 274 259 243 239 238 240 248 255 261 265 265 263 262 263 267 272 274 275 275 275 274 273 271 270 269 268 267 271 276 280 283 283 283 281 279 277 274 272